Location: Unspecified
(0.0000°N, 0.0000°E)
Time: 22:09:23
(UTC+00:00)

GALILEO 9 (205) - Pass Details

Date: 17 December 2022
Orbit: 23203 x 23241 km, 55.5° (Epoch: 05 February)

Event Time Altitude Azimuth Distance (km) Brightness Sun altitude
Rises 13:26:47 0° 225° (SW) 28,909 ? 57.9°
Reaches altitude 10° 14:30:01 10° 243° (WSW) 27,807 ? 46.0°
Maximum altitude 22:44:13 78° 92° (E) 23,348 ? -60.8°
Drops below altitude 10° 02:18:11 10° 153° (SSE) 27,829 ? -48.4°
Sets 03:13:34 0° 140° (SE) 28,912 ? -36.8°
